Regional Weather Roundup
Issued by NWS

Home | Current Version | Previous Version | Graphics & Text | Print | Product List | Glossary On
Versions: 1 2 3 4 5 6 7 8 9 10 11 12 13 14 15 16 17 18 19 20 21 22 23 24 25 26 27
000
ASUS45 KBOU 230610
RWRCO

WEATHER ROUNDUP FOR COLORADO
NATIONAL WEATHER SERVICE DENVER/BOULDER CO
1100 PM MST MON JAN 22 2018

NOTE: "FAIR" INDICATES FEW OR NO CLOUDS BELOW 12000 FEET WITH NO
SIGNIFICANT WEATHER AND/OR OBSTRUCTIONS TO VISIBILITY.

COZ001>005-013-030-031-230700-
...NORTHWEST COLORADO...

CITY           SKY/WX    TMP DP  RH WIND       PRES   REMARKS
CRAIG          CLOUDY    17  11  77 CALM      30.26S
HAYDEN         FLURRIES  17  12  80 E6        30.26S WCI   9
MEEKER         CLOUDY    17  13  84 CALM      30.26R
RABBIT EARS PA LGT SNOW   9   5  85 W6        30.10S VSB 3/4 WCI  -1
STEAMBOAT SPGS CLOUDY    10   6  85 CALM      30.24R
WALDEN         CLOUDY    16   7  67 SW10      30.14F WCI   3
$$

COZ006>008-011-230700-
...WEST CENTRAL VALLEYS...

CITY           SKY/WX    TMP DP  RH WIND       PRES   REMARKS
GRAND JUNCTION CLOUDY    23  19  85 E3        30.32R
MONTROSE       FAIR      19  12  74 SW5       30.31R WCI  12
EAGLE          CLOUDY    19  13  77 E7        30.27R WCI  10
RIFLE          CLOUDY    26  19  74 CALM      30.30R
DELTA          FAIR      23  13  66 CALM      30.31S
NUCLA          FAIR      21  12  68 E3        30.32R
$$

COZ017>023-064>068-230700-
...SOUTHWEST COLORADO...

CITY           SKY/WX    TMP DP  RH WIND       PRES   REMARKS
DURANGO        FAIR       6   3  87 NE3       30.24R
CORTEZ         FAIR      12   8  84 E6        30.28R WCI   3
PAGOSA SPRINGS FAIR       8   6  91 CALM      30.23R
TELLURIDE      FAIR      13   5  70 SE7       30.22S WCI   2
WOLF CREEK PAS FAIR      10  -9  40 SW7       30.19S WCI   0
$$

COZ009-010-012-014-032>034-037-058>063-230700-
...CENTRAL COLORADO...

CITY           SKY/WX    TMP DP  RH WIND       PRES   REMARKS
ASPEN          CLOUDY    14   7  73 CALM      30.21R
BUENA VISTA    FAIR      13  -3  49 E7        30.13S WCI   3
COPPER MTN     NOT AVBL
BERTHOUD PASS  FAIR       1  -9  60 NW39G48   29.96S HAZE    WCI -27
COTTONWOOD PAS FAIR      23   3  42 NW10G22   30.07S WCI  12
GUNNISON       CLOUDY     9   2  73 E3        30.25R
KREMMLING      MOCLDY     9   3  78 CALM      30.23R
LEADVILLE      FAIR      10   3  73 N5        30.12S WCI   2
MONARCH PASS     N/A      5   1  85 W30       30.18S WCI -19
SALIDA         FAIR      15   6  65 N5        30.21F WCI   8
SUNLIGHT       LGT SNOW  10   7  85 SW8       30.20R VSB 1   WCI  -1
WILKERSON PASS   N/A     10  -4  52 NW12G18   30.07S WCI  -4
$$

COZ069>075-230700-
...SAN LUIS VALLEY/SANGRE DE CRISTO MOUNTAINS...

CITY           SKY/WX    TMP DP  RH WIND       PRES   REMARKS
ALAMOSA        FAIR       1  -3  83 N3        30.20R
DEL NORTE      FAIR       7  -1  68 W9        30.20S WCI  -6
LA VETA PASS   FAIR      14   1  57 S24G33      N/A  WCI  -5
SAGUACHE       FAIR       9   0  66 NW9       30.21S WCI  -5
$$

COZ035-036-038>040-230700-
...NORTHERN COLORADO FRONT RANGE...

CITY           SKY/WX    TMP DP  RH WIND       PRES   REMARKS
DENVER INTL AP MOCLDY    30   7  37 SW5       30.07S WCI  25
DMNS CITY PARK NOT AVBL
AURORA         MOCLDY    26  10  50 S6        30.08R WCI  20
FRONT RANGE AP FAIR      31   7  36 W7        30.08S WCI  25
ERIE MUNI ARPT FAIR      31  11  42 NW7       30.13R WCI  25
BOULDER MUN AP FAIR      36   7  30 SE6       30.06S
CENTENNIAL     MOCLDY    29   6  38 CALM      30.08R
BROOMFIELD     MOCLDY    34  10  37 W16       30.08R WCI  23
FORT COLLINS   CLOUDY    26  16  65 CALM      30.10R
LONGMONT       FAIR      27  17  65 CALM      30.11R
$$

COZ041-046-047-076>085-087-088-230700-
...PIKES PEAK/PALMER DIVIDE AND SOUTHERN FOOTHILLS...

CITY           SKY/WX    TMP DP  RH WIND       PRES   REMARKS
COLO. SPRINGS  MOCLDY    31   6  35 E9        30.10S WCI  23
A. F. ACADEMY  MOCLDY    26   7  44 CALM      30.09R
SCHRIEVER AFB  CLOUDY    28   3  35 S6        30.11R WCI  21
CHEYENNE MTN   FAIR      29   0  29 CALM      30.03S
ELLICOTT         N/A    N/A N/A N/A S8        30.09R
FALCON         CLOUDY    27   4  37 S7        30.10R WCI  19
FORT CARSON    FAIR      26   7  45 E5        30.09R WCI  20
LIMON          FAIR      15   8  73 NW5       30.10R WCI   8
MONUMENT HILL  CLOUDY    25   3  39 S7        30.09S WCI  17
CANON CITY     FAIR      28  10  47 NW10      30.10S WCI  19
WALSENBURG     NOT AVBL
TRINIDAD       FAIR      22   5  48 SW9       30.12F WCI  12
$$

COZ042>045-048>051-090-091-230700-
...NORTHEAST COLORADO...

CITY           SKY/WX    TMP DP  RH WIND       PRES   REMARKS
GREELEY ARPT   FAIR      24  15  68 CALM      30.11R
AKRON          FAIR      16   7  67 W10       30.09R WCI   4
BURLINGTON     FAIR      12   4  70 W10       30.10F WCI  -1
WRAY           FAIR      14   9  79 W8        30.10F WCI   3
YUMA           FAIR      25  10  54 W10       30.10R WCI  15
STERLING       FAIR      30  19  64 N24       30.06F WCI  16
HOLYOKE        FAIR      27  14  59 NW15      30.08R WCI  15
FORT MORGAN    FAIR      20  10  66 W6        30.11R WCI  12
$$

COZ086-089-092>099-230700-
...SOUTHEAST COLORADO...

CITY           SKY/WX    TMP DP  RH WIND       PRES   REMARKS
PUEBLO         FAIR      28  15  58 NE6       30.13R WCI  22
LA JUNTA       FAIR      31  12  45 S3        30.15S
LAMAR          FAIR      18  10  71 S9        30.14R WCI   7
SPRINGFIELD      N/A     14   8  77 NW10      30.15R WCI   1
$$




USA.gov is the U.S. government's official web portal to all federal, state and local government web resources and services.